Location: Del Amo
(33.8464°N, 118.2104°W)
Time: 08:22:58
(UTC+00:00)

Vanguard 3 - Pass Details

Date: 21 September 2024
Orbit: 507 x 3223 km, 33.3° (Epoch: 09 October)

Event Time Altitude Azimuth Distance (km) Brightness Sun altitude
Rises 17:15:41 0° 282° (WNW) 7,062 11.5 41.4°
Reaches altitude 10° 17:20:19 10° 281° (W) 6,131 11.3 42.2°
Maximum altitude 17:40:08 75° 201° (SSW) 2,973 10.9 45.4°
Drops below altitude 10° 17:54:26 10° 119° (ESE) 4,625 11.9 47.5°
Sets 17:57:24 0° 117° (ESE) 5,324 11.9 47.9°
